TimeCDT,TemperatureF,Dew PointF,Humidity,Sea Level PressureIn,VisibilityMPH,Wind Direction,Wind SpeedMPH,Gust SpeedMPH,PrecipitationIn,Events,Conditions,WindDirDegrees,DateUTC
12:53 AM,45.0,39.0,80,30.13,10.0,Calm,Calm,-,N/A,,Clear,0,2011-10-30 05:53:00
1:53 AM,44.1,39.0,82,30.12,10.0,Calm,Calm,-,N/A,,Clear,0,2011-10-30 06:53:00
2:53 AM,43.0,39.0,86,30.13,10.0,Calm,Calm,-,N/A,,Clear,0,2011-10-30 07:53:00
3:53 AM,43.0,39.0,86,30.12,10.0,Calm,Calm,-,N/A,,Clear,0,2011-10-30 08:53:00
4:53 AM,42.1,37.9,85,30.12,10.0,Calm,Calm,-,N/A,,Clear,0,2011-10-30 09:53:00
5:53 AM,42.1,37.9,85,30.14,10.0,NE,4.6,-,N/A,,Clear,40,2011-10-30 10:53:00
6:53 AM,43.0,39.0,86,30.15,10.0,NE,3.5,-,N/A,,Clear,50,2011-10-30 11:53:00
7:53 AM,43.0,39.0,86,30.17,10.0,NE,4.6,-,N/A,,Clear,50,2011-10-30 12:53:00
8:53 AM,46.0,41.0,83,30.18,10.0,NE,3.5,-,N/A,,Clear,40,2011-10-30 13:53:00
9:53 AM,51.1,41.0,68,30.19,10.0,Calm,Calm,-,N/A,,Clear,0,2011-10-30 14:53:00
10:53 AM,57.9,39.0,49,30.17,10.0,Calm,Calm,-,N/A,,Clear,0,2011-10-30 15:53:00
11:53 AM,64.0,35.1,34,30.17,10.0,SSW,12.7,-,N/A,,Clear,210,2011-10-30 16:53:00
12:53 PM,66.0,34.0,30,30.14,10.0,SW,13.8,-,N/A,,Clear,220,2011-10-30 17:53:00
1:53 PM,69.1,35.1,29,30.10,10.0,WSW,13.8,-,N/A,,Clear,250,2011-10-30 18:53:00
2:53 PM,70.0,35.1,28,30.09,10.0,WSW,11.5,21.9,N/A,,Clear,240,2011-10-30 19:53:00
3:53 PM,70.0,35.1,28,30.08,10.0,WSW,13.8,-,N/A,,Clear,250,2011-10-30 20:53:00
4:53 PM,68.0,37.0,32,30.08,10.0,WSW,10.4,-,N/A,,Clear,250,2011-10-30 21:53:00
5:53 PM,66.9,39.0,36,30.08,10.0,West,6.9,-,N/A,,Clear,260,2011-10-30 22:53:00
6:53 PM,57.9,42.1,56,30.10,10.0,Calm,Calm,-,N/A,,Clear,0,2011-10-30 23:53:00
7:53 PM,57.9,43.0,58,30.12,10.0,SW,3.5,-,N/A,,Clear,230,2011-10-31 00:53:00
8:53 PM,53.6,42.8,67,30.13,10.0,West,4.6,-,N/A,,Clear,270,2011-10-31 01:53:00
9:53 PM,55.0,43.0,64,30.15,10.0,WSW,3.5,-,N/A,,Clear,240,2011-10-31 02:53:00
10:53 PM,51.1,43.0,74,30.17,10.0,WSW,3.5,-,N/A,,Clear,250,2011-10-31 03:53:00
11:53 PM,48.9,43.0,80,30.18,10.0,WSW,4.6,-,N/A,,Clear,240,2011-10-31 04:53:00